Location: Unspecified
(64.9000°N, 0.0000°E)
Time: 07:25:39
(UTC+00:00)

Transit 2A Rocket - Pass Details

Date: 21 June 2019
Orbit: 588 x 915 km, 66.7° (Epoch: 21 July)

Event Time Altitude Azimuth Distance (km) Brightness Sun altitude
Rises 12:56:52 0° 242° (WSW) 3,532 8.9 47.6°
Reaches altitude 10° 12:59:26 10° 242° (WSW) 2,572 8.4 47.5°
Maximum altitude 13:05:26 86° 156° (SSE) 869 6.3 47.3°
Drops below altitude 10° 13:11:03 10° 68° (ENE) 2,403 7.4 47.0°
Sets 13:13:23 0° 68° (ENE) 3,286 8.0 46.9°
